Location: Brivio
(45.7333°N, 9.4500°E)
Time: 19:11:14
(UTC+00:00)

Envisat - Visible Passes

Search period start: 15 December 2019 00:00
Search period end: 25 December 2019 00:00
Orbit: 764 x 766 km, 98.1° (Epoch: 15 December)

Date Brightness Start Highest point End Pass type
(mag) Time Alt. Az. Time Alt. Az. Time Alt. Az.
15 Dec 6.0 04:57:27 10° NE 05:00:37 16° E 05:03:46 10° SE visible
15 Dec 3.8 16:13:54 10° ESE 16:18:10 28° ENE 16:22:27 10° N visible
15 Dec 4.3 17:52:15 10° SSW 17:57:01 41° W 18:01:49 10° NNW visible
16 Dec 3.7 05:58:19 10° NNE 06:03:21 58° E 06:08:21 10° S visible
16 Dec 3.0 17:15:04 10° SSE 17:20:09 87° WSW 17:25:16 10° NNW visible
16 Dec 6.2 18:58:24 10° WSW 18:59:55 11° W 19:01:26 10° WNW visible
17 Dec 5.2 05:22:03 10° NE 05:26:23 28° E 05:30:41 10° SSE visible
17 Dec 3.2 16:38:39 10° SE 16:43:28 45° ENE 16:48:19 10° N visible
17 Dec 5.2 18:18:36 10° SSW 18:22:42 24° W 18:26:49 10° NW visible
18 Dec 6.1 04:46:53 10° ENE 04:49:11 13° E 04:51:29 10° ESE visible
18 Dec 3.8 17:40:45 10° S 17:45:41 51° W 17:50:39 10° NNW visible
19 Dec 4.2 05:47:08 10° NNE 05:52:02 46° E 05:56:54 10° S visible
19 Dec 2.9 17:03:49 10° SSE 17:08:52 77° ENE 17:13:58 10° N visible
19 Dec 5.9 18:45:46 10° WSW 18:48:29 14° W 18:51:13 10° NW visible
20 Dec 5.6 05:11:03 10° NE 05:15:00 22° E 05:18:55 10° SE visible
20 Dec 3.5 16:27:37 10° SE 16:32:15 37° ENE 16:36:54 10° N visible
20 Dec 4.9 18:06:52 10° SSW 18:11:19 30° W 18:15:48 10° NNW visible
21 Dec 3.2 06:12:28 10° NNE 06:17:36 79° ESE 06:22:40 10° S visible
21 Dec 3.4 17:29:21 10° S 17:34:23 64° W 17:39:26 10° NNW visible
22 Dec 4.7 05:35:59 10° NNE 05:40:42 37° E 05:45:23 10° SSE visible
22 Dec 3.0 16:52:37 10° SSE 16:57:37 61° ENE 17:02:38 10° N visible
22 Dec 5.7 18:33:38 10° SW 18:37:04 18° W 18:40:31 10° NW visible
23 Dec 5.9 05:00:10 10° NE 05:03:36 18° E 05:07:00 10° SE visible
23 Dec 3.7 16:16:40 10° SE 16:21:03 30° ENE 16:25:27 10° N visible
23 Dec 4.5 17:55:16 10° SSW 17:59:58 37° W 18:04:42 10° NNW visible
24 Dec 3.6 06:01:14 10° NNE 06:06:18 63° ESE 06:11:19 10° S visible
24 Dec 3.1 17:17:59 10° S 17:23:04 80° WSW 17:28:11 10° NNW visible
24 Dec 6.3 19:02:29 10° W 19:02:54 10° W 19:03:20 10° W visible
